Overview Statistics Trail Chart Weather Telemetry Raw packets
 

This is the latest recevied weather packets stored in our database for station/object G4WLC-1. If no packets are shown the sender has not sent any weather packets the latest 10 day(s).

<< 75 76 77 78 79 80 81 >>
Time Temp. Humidity Pressure Rain* Wind** Luminosity Snow
1788122534 14.44° C 94% 1004.9 hPa 0 mm - - -
1788122234 14.44° C 94% 1005 hPa 0 mm - - -
1788121934 14.44° C 94% 1004.9 hPa 0 mm - - -
1788121635 14.44° C 94% 1004.7 hPa 0 mm - - -
1788121334 14.44° C 94% 1004.8 hPa 0 mm - - -
1788121034 14.44° C 94% 1004.9 hPa 0 mm - - -
1788120734 14.44° C 94% 1005 hPa 0.51 mm - - -
1788120435 14.44° C 93% 1004.9 hPa 2.03 mm - - -
1788120135 14.44° C 93% 1005 hPa 2.54 mm - - -
1788119835 14.44° C 93% 1005 hPa 2.54 mm - - -
1788119535 14.44° C 93% 1004.9 hPa 2.54 mm - - -
1788119235 14.44° C 93% 1005 hPa 2.54 mm - - -
1788118935 14.44° C 93% 1004.9 hPa 2.54 mm - - -
1788118635 14.44° C 93% 1005 hPa 2.54 mm - - -
1788118335 14.44° C 93% 1005.1 hPa 2.79 mm - - -
1788118035 14.44° C 93% 1005.1 hPa 3.3 mm - - -
1788117735 15° C 93% 1005 hPa 3.56 mm - - -
1788117435 15° C 93% 1005.1 hPa 4.06 mm - - -
1788117135 15° C 93% 1004.7 hPa 3.56 mm - - -
1788116835 15° C 93% 1004.7 hPa 2.03 mm - - -
1788116535 15.56° C 93% 1004.6 hPa 1.52 mm - - -
1788116235 15.56° C 93% 1004.6 hPa 1.52 mm - - -
1788115935 15.56° C 92% 1004.5 hPa 1.78 mm - - -
1788115635 15.56° C 92% 1004.6 hPa 1.78 mm - - -
1788115335 15.56° C 92% 1004.6 hPa 1.78 mm - - -

* Rain latest hour (hover to see other rain measurements)
** Current wind speed in m/s (hover to see current wind gust speed)